Regional Weather Roundup
Issued by NWS Upton, NY

Current Version | Previous Version | Text Only | Print | Product List | Glossary Off
Versions: 1 2 3 4 5 6 7 8 9 10 11 12 13 14 15 16 17 18 19 20 21 22 23 24 25 26 27 28 29 30 31 32 33 34 35 36 37 38 39 40 41 42 43 44 45 46 47 48 49 50
103 ASUS41 KOKX 190905 RWROKX Regional Weather Roundup National Weather Service New York NY 400 AM EST MON FEB 19 2018 Note: "FAIR" indicates few or no clouds below 12,000 feet with no significant weather and/or obstructions to visibility. NYZ071-072-176-178-NJZ106-104-191000- New York City Metro Area CITY SKY/WX TMP DP RH WIND PRES REMARKS Central Park FAIR 37 29 72 VRB3 30.54S Bronx Bot Gard N/A 34 27 75 S8 30.54S WCI 27 Bronx Lehman C N/A 36 28 75 SE6 N/A WCI 31 LaGuardia Arpt MOCLDY 36 27 69 SE6 30.52F WCI 31 Queens College N/A 36 32 87 SE8 N/A WCI 29 Kennedy Intl CLOUDY 32 31 96 SE5 30.54F WCI 27 Breezy Point N/A 37 N/A N/A S7 N/A WCI 32 Brooklyn Coll N/A 37 32 81 SE3 N/A Staten Island N/A 37 32 81 S3 N/A Newark/Liberty MOCLDY 36 28 73 E3 30.52F Teterboro FAIR 34 27 75 CALM 30.51F $$ NYZ177-179-078>081-191000- Long Island New York CITY SKY/WX TMP DP RH WIND PRES REMARKS Jones Beach N/A 36 N/A N/A SE3 N/A Wantagh N/A 36 34 93 SE6 N/A WCI 31 Hempstead NOT AVBL Matinecock Pt N/A 36 N/A N/A SE5G10 N/A WCI 32 Farmingdale FAIR 30 24 78 CALM 30.53F MacArthur/ISP FAIR 30 25 81 CALM 30.53S Shirley FAIR 27 25 92 CALM 30.54S Mt Sinai Harb N/A N/A N/A N/A S3 N/A Westhampton FAIR 22 19 89 CALM 30.55F East Hampton FAIR 21 19 93 CALM 30.54R Southold N/A 30 27 86 CALM N/A Montauk N/A 29 27 92 CALM 30.55S $$ NYZ052-065-067-191000- Hudson Valley CITY SKY/WX TMP DP RH WIND PRES REMARKS White Plains FAIR 26 24 92 S3 30.50S Larchmont Harb N/A 34 N/A N/A SE5 N/A WCI 30 Croton On Huds N/A N/A N/A N/A MISG N/A Somers N/A 30 25 80 S6 N/A WCI 24 Brewster N/A 25 21 86 CALM N/A Newburgh CLEAR 27 23 86 CALM 30.49S Montgomery FAIR 19 17 92 CALM 30.47F Otisville N/A 23 21 93 NW1 N/A Warwick N/A 32 25 74 SE9 N/A WCI 24 Suffern N/A 30 23 74 S1 N/A Poughkeepsie FAIR 20 17 88 CALM 30.50R Albany FAIR 29 18 63 S8 30.45S WCI 21 $$ NJZ001-105-106-008-010-013-015-019>022-104-191000- New Jersey CITY SKY/WX TMP DP RH WIND PRES REMARKS Newark/Liberty MOCLDY 36 28 73 E3 30.52F Teterboro FAIR 34 27 75 CALM 30.51F Caldwell FAIR 25 24 96 CALM 30.52F Somerville FAIR 24 23 96 CALM 30.49F Linden FAIR 32 29 87 CALM 30.52F Perth Amboy N/A 36 N/A N/A S6 N/A WCI 31 Sussex FAIR 21 19 92 SW3 30.47F Andover N/A 24 22 91 CALM 30.46F Trenton FAIR 31 26 82 SE3 30.49F Millville FAIR 34 33 96 CALM 30.50F Atlantic City FAIR 39 35 86 SE6 30.51F WCI 35 Wrightstown FAIR 32 30 91 S5 30.48F WCI 28 Toms River FAIR 25 23 92 CALM 30.53F Belmar FAIR 33 32 96 S3 30.53F $$ PAZ047>061-062-071-191000- Eastern Pennsylvania CITY SKY/WX TMP DP RH WIND PRES REMARKS Philadelphia MOCLDY 37 29 72 SE8 30.51F WCI 31 Allentown FAIR 28 21 75 VRB3 30.47F Scranton FAIR 36 24 62 MISG 30.39F $$ CTZ002-004>006-009-010-012-RIZ004-006-007-MAZ004-011-015-191000- Southern New England In CT CITY SKY/WX TMP DP RH WIND PRES REMARKS Bradley Intl FAIR 21 19 92 CALM 30.52R Hartford FAIR 22 19 89 CALM 30.52F FOG Danbury FAIR 23 20 88 E3 30.51S Wtrbury/Oxford FAIR 27 21 78 S6 30.50S WCI 20 Norwalk Harbor N/A 32 N/A N/A S5 N/A WCI 27 Bridgeport FAIR 34 28 79 S6 30.53S WCI 29 Meriden FAIR 20 18 92 CALM 30.53S New Haven FAIR 24 20 84 CALM 30.53S Chester FAIR 28 21 74 SE3 30.51S Groton FAIR 26 22 84 CALM 30.54S Willimantic FAIR 22 19 89 CALM 30.54R In RI CITY SKY/WX TMP DP RH WIND PRES REMARKS Providence FAIR 26 24 92 CALM 30.54S Block Island FAIR 33 30 88 S7 30.54F WCI 27 Westerly FAIR 26 24 92 CALM 30.55S In MA CITY SKY/WX TMP DP RH WIND PRES REMARKS Boston FAIR 29 22 75 CALM 30.53S Worcester FAIR 25 18 74 S5 30.47S WCI 19 Westfield FAIR 18 16 92 CALM 30.51R Provincetown FAIR 28 26 92 SE3 30.55R Nantucket FAIR 33 33 100 SE6 30.56R WCI 28 $$ ANZ330-335-338-340-345-350-353-355-191000- Coastal Marine Observations STATION/POSITION TIME SKY/WX TEMP WIND PRES VSBY WAVE AIR SEA DIR/SP/G HT/PER (UTC) (F) (DEG/KT/KT) (MB) (MI) (FT/S) NY Harb Entrance 0850 39 39 170/ 6/ 8 1033.8 1/ 7 20 S Fire Island 0850 42 42 160/ 8/ 8 1034.3 1/ 8 15 E Barnegat Li 0830 40 N/A 2/ 8 Hudson Canyon 0850 45 47 140/ 10/ 12 1034.3 2/ 8 Kings Point 0830 35 36 190/ 5/ 7 1034.6 Execution Rocks NOT AVBL Western LI Sound NOT AVBL Central LI Sound 0845 36 140/ 6/ 8 N/A 0 Robbins Reef 0836 38 110/ 7/ 8 1034.1 $$ >>>>>>>>>>>>>>>>>>>>>>>>>>>> KEY <<<<<<<<<<<<<<<<<<<<<<<<<<< > < > SKY/WX - Sky Condition/Present Weather < > TMP - Temperature in Fahrenheit < > DP - Dew Point in Fahrenheit < > RH - Relative Humidity in Percent < > WIND - Direction (from) and Speed in MPH < > PRES - Mean Sea Level Pressure (inches of Hg) < > WCI - Wind Chill Index < > VSB - Visibility in Miles < > HX - Heat Index < > TC - Temperature in Celsius < > VRB - Varibale Wind Direction < > < >>>>>>>>>>>>>>>>>>>>>>>>>>>> KEY <<<<<<<<<<<<<<<<<<<<<<<<<<<

USA.gov is the U.S. government's official web portal to all federal, state and local government web resources and services.